EJU83WD LIMC-LEMH

Flight info

Callsign EJU83WD
Flight time 1h 6m
Altitude 35000
Route LAGEN DCT PIDAD DCT TALEP DCT RARQU DCT BALEN UT250 RIXOT
Aircraft A319/M-SDE2E3FGIJ1RWXYZ/LB1

Departure

Time 2026-04-18 08:14
Airport Milan Malpensa International Airport (LIMC)

Arrival

Time 2026-04-18 09:21
Airport Menorca Airport (LEMH)
Time Latitude Longitude Altitude Speed Heading
2026-04-18 07:45 45.64137 8.72443 752 ft 0 kts 79°
2026-04-18 08:08 45.64140 8.72464 750 ft 4 kts 79°
2026-04-18 08:08 45.64121 8.72510 751 ft 8 kts 160°
2026-04-18 08:08 45.64053 8.72532 751 ft 12 kts 163°
2026-04-18 08:08 45.63955 8.72564 752 ft 17 kts 169°
2026-04-18 08:09 45.63828 8.72599 752 ft 21 kts 169°
2026-04-18 08:09 45.63672 8.72642 752 ft 25 kts 169°
2026-04-18 08:09 45.63490 8.72693 752 ft 27 kts 169°
2026-04-18 08:09 45.63304 8.72744 752 ft 27 kts 169°
2026-04-18 08:10 45.63118 8.72795 751 ft 27 kts 169°
2026-04-18 08:10 45.62931 8.72846 752 ft 27 kts 169°
2026-04-18 08:10 45.62745 8.72897 751 ft 27 kts 169°
2026-04-18 08:10 45.62559 8.72948 751 ft 27 kts 169°
2026-04-18 08:11 45.62372 8.72999 749 ft 27 kts 169°
2026-04-18 08:11 45.62249 8.73034 753 ft 27 kts 168°
2026-04-18 08:11 45.62063 8.73085 753 ft 27 kts 169°
2026-04-18 08:11 45.61903 8.73129 752 ft 21 kts 169°
2026-04-18 08:12 45.61771 8.73170 753 ft 18 kts 155°
2026-04-18 08:12 45.61693 8.73307 750 ft 18 kts 124°
2026-04-18 08:12 45.61622 8.73457 751 ft 18 kts 124°
2026-04-18 08:12 45.61587 8.73625 750 ft 14 kts 84°
2026-04-18 08:13 45.61605 8.73731 744 ft 6 kts 54°
2026-04-18 08:13 45.61631 8.73733 745 ft 0 kts 348°
2026-04-18 08:13 45.61637 8.73731 745 ft 4 kts 348°
2026-04-18 08:14 45.61873 8.73665 745 ft 73 kts 349°
2026-04-18 08:14 45.62593 8.73467 748 ft 136 kts 349°
2026-04-18 08:14 45.63663 8.73168 982 ft 163 kts 348°
2026-04-18 08:14 45.64780 8.72864 1620 ft 165 kts 349°
2026-04-18 08:15 45.65927 8.72607 2272 ft 169 kts 358°
2026-04-18 08:15 45.67103 8.72614 2963 ft 169 kts
2026-04-18 08:15 45.68285 8.72616 3624 ft 170 kts
2026-04-18 08:15 45.69487 8.72612 4180 ft 179 kts
2026-04-18 08:16 45.70808 8.72608 4497 ft 201 kts 360°
2026-04-18 08:16 45.72239 8.72125 4734 ft 228 kts 326°
2026-04-18 08:16 45.73179 8.70277 5312 ft 239 kts 283°
2026-04-18 08:16 45.73152 8.67915 6177 ft 240 kts 258°
2026-04-18 08:17 45.72752 8.65591 7099 ft 241 kts 254°
2026-04-18 08:17 45.72265 8.63276 7987 ft 244 kts 253°
2026-04-18 08:17 45.71752 8.60952 8859 ft 247 kts 249°
2026-04-18 08:17 45.70914 8.58757 9514 ft 263 kts 236°
2026-04-18 08:18 45.69861 8.56482 9982 ft 282 kts 237°
2026-04-18 08:18 45.68720 8.54150 10697 ft 291 kts 230°
2026-04-18 08:18 45.67212 8.52130 11081 ft 314 kts 216°
2026-04-18 08:18 45.65187 8.50586 11347 ft 340 kts 203°
2026-04-18 08:19 45.62960 8.49287 11683 ft 357 kts 203°
2026-04-18 08:19 45.60632 8.47939 12342 ft 365 kts 203°
2026-04-18 08:19 45.58262 8.46571 13043 ft 371 kts 203°
2026-04-18 08:19 45.55850 8.45175 13740 ft 377 kts 203°
2026-04-18 08:20 45.53393 8.43809 14387 ft 382 kts 201°
2026-04-18 08:20 45.50874 8.42519 15049 ft 386 kts 200°
2026-04-18 08:20 45.48322 8.41278 15713 ft 390 kts 200°
2026-04-18 08:20 45.45738 8.40043 16376 ft 393 kts 200°
2026-04-18 08:21 45.43139 8.38798 17040 ft 396 kts 200°
2026-04-18 08:21 45.40515 8.37526 17696 ft 400 kts 200°
2026-04-18 08:21 45.37877 8.36231 18352 ft 403 kts 200°
2026-04-18 08:21 45.35212 8.34918 18927 ft 407 kts 201°
2026-04-18 08:22 45.32530 8.33594 19487 ft 410 kts 201°
2026-04-18 08:22 45.29820 8.32253 20041 ft 414 kts 201°
2026-04-18 08:22 45.27092 8.30905 20595 ft 417 kts 201°
2026-04-18 08:22 45.24334 8.29544 21111 ft 421 kts 201°
2026-04-18 08:23 45.21558 8.28173 21628 ft 425 kts 201°
2026-04-18 08:23 45.18751 8.26792 22135 ft 428 kts 201°
2026-04-18 08:23 45.15924 8.25413 22634 ft 432 kts 200°
2026-04-18 08:23 45.12984 8.24394 23114 ft 438 kts 190°
2026-04-18 08:24 45.09929 8.24109 23588 ft 444 kts 180°
2026-04-18 08:24 45.06843 8.24580 23990 ft 449 kts 169°
2026-04-18 08:24 45.03811 8.25672 24389 ft 451 kts 165°
2026-04-18 08:24 45.00768 8.26831 24808 ft 453 kts 165°
2026-04-18 08:25 44.97719 8.27987 25228 ft 455 kts 165°
2026-04-18 08:25 44.94651 8.29145 25644 ft 457 kts 166°
2026-04-18 08:25 44.91577 8.30302 26055 ft 459 kts 166°
2026-04-18 08:25 44.88526 8.31451 26451 ft 460 kts 166°
2026-04-18 08:26 44.85385 8.32630 26848 ft 463 kts 166°
2026-04-18 08:26 44.82265 8.33802 27237 ft 464 kts 166°
2026-04-18 08:26 44.79182 8.34960 27615 ft 466 kts 166°
2026-04-18 08:26 44.76044 8.36136 27982 ft 468 kts 166°
2026-04-18 08:27 44.72887 8.37318 28371 ft 470 kts 165°
2026-04-18 08:27 44.69727 8.38505 28741 ft 472 kts 165°
2026-04-18 08:27 44.66548 8.39703 29080 ft 473 kts 165°
2026-04-18 08:27 44.63362 8.40897 29408 ft 476 kts 165°
2026-04-18 08:28 44.60154 8.42094 29742 ft 477 kts 166°
2026-04-18 08:28 44.56940 8.43292 30085 ft 479 kts 166°
2026-04-18 08:28 44.53721 8.44493 30504 ft 477 kts 166°
2026-04-18 08:28 44.50519 8.45689 30905 ft 476 kts 166°
2026-04-18 08:29 44.47315 8.46883 31284 ft 476 kts 166°
2026-04-18 08:29 44.44121 8.48067 31662 ft 475 kts 166°
2026-04-18 08:29 44.40923 8.49250 32037 ft 475 kts 166°
2026-04-18 08:29 44.37729 8.50393 32407 ft 474 kts 167°
2026-04-18 08:30 44.34509 8.51405 32796 ft 473 kts 169°
2026-04-18 08:30 44.31286 8.52305 33181 ft 473 kts 170°
2026-04-18 08:30 44.28053 8.53151 33570 ft 472 kts 171°
2026-04-18 08:30 44.24825 8.53984 33929 ft 472 kts 171°
2026-04-18 08:31 44.21592 8.54832 34283 ft 472 kts 170°
2026-04-18 08:31 44.18374 8.55706 34621 ft 472 kts 170°
2026-04-18 08:31 44.15156 8.56608 34963 ft 471 kts 169°
2026-04-18 08:31 44.11948 8.57525 35119 ft 471 kts 169°
2026-04-18 08:32 44.08736 8.58447 35148 ft 471 kts 169°
2026-04-18 08:32 44.02313 8.60263 35147 ft 471 kts 169°
2026-04-18 08:33 43.95884 8.62054 35144 ft 471 kts 169°
2026-04-18 08:33 43.89498 8.63836 35139 ft 471 kts 169°
2026-04-18 08:34 43.83030 8.65643 35145 ft 472 kts 169°
2026-04-18 08:34 43.76592 8.67431 35147 ft 472 kts 169°
2026-04-18 08:35 43.70195 8.69198 35149 ft 472 kts 169°
2026-04-18 08:35 43.63745 8.70924 35143 ft 472 kts 173°
2026-04-18 08:36 43.57202 8.71233 35142 ft 471 kts 182°
2026-04-18 08:36 43.53974 8.70670 35140 ft 466 kts 200°
2026-04-18 08:36 43.51064 8.68810 35143 ft 461 kts 214°
2026-04-18 08:37 43.45658 8.64087 35134 ft 463 kts 210°
2026-04-18 08:37 43.39954 8.59953 35132 ft 464 kts 210°
2026-04-18 08:38 43.34245 8.55805 35132 ft 464 kts 212°
2026-04-18 08:38 43.31648 8.53225 35129 ft 459 kts 224°
2026-04-18 08:38 43.29267 8.50310 35127 ft 459 kts 225°
2026-04-18 08:39 43.24516 8.44442 35130 ft 460 kts 225°
2026-04-18 08:39 43.19758 8.38572 35134 ft 460 kts 225°
2026-04-18 08:40 43.14983 8.32723 35132 ft 460 kts 224°
2026-04-18 08:40 43.10207 8.26895 35149 ft 459 kts 224°
2026-04-18 08:41 43.05439 8.21081 35153 ft 459 kts 224°
2026-04-18 08:41 43.00675 8.15279 35154 ft 458 kts 224°
2026-04-18 08:42 42.95911 8.09493 35150 ft 458 kts 224°
2026-04-18 08:42 42.91141 8.03725 35155 ft 458 kts 224°
2026-04-18 08:43 42.86402 7.98003 35146 ft 458 kts 224°
2026-04-18 08:43 42.81631 7.92256 35146 ft 457 kts 224°
2026-04-18 08:44 42.76836 7.86482 35155 ft 457 kts 224°
2026-04-18 08:44 42.72108 7.80799 35150 ft 456 kts 224°
2026-04-18 08:45 42.67348 7.75087 35152 ft 456 kts 224°
2026-04-18 08:45 42.62584 7.69387 35151 ft 456 kts 224°
2026-04-18 08:46 42.57816 7.63700 35149 ft 456 kts 224°
2026-04-18 08:46 42.53048 7.58019 35137 ft 456 kts 224°
2026-04-18 08:47 42.48282 7.52363 35145 ft 456 kts 223°
2026-04-18 08:47 42.43514 7.46711 35151 ft 455 kts 224°
2026-04-18 08:48 42.38755 7.41062 35154 ft 455 kts 224°
2026-04-18 08:48 42.33989 7.35431 35152 ft 455 kts 223°
2026-04-18 08:49 42.29215 7.29816 35148 ft 455 kts 223°
2026-04-18 08:49 42.24439 7.24206 35148 ft 455 kts 223°
2026-04-18 08:50 42.19662 7.18601 35147 ft 455 kts 223°
2026-04-18 08:50 42.14884 7.13001 35143 ft 455 kts 223°
2026-04-18 08:51 42.10102 7.07409 35146 ft 455 kts 223°
2026-04-18 08:51 42.05319 7.01823 35147 ft 455 kts 223°
2026-04-18 08:52 42.00537 6.96239 35151 ft 455 kts 224°
2026-04-18 08:52 41.95857 6.90518 35142 ft 455 kts 225°
2026-04-18 08:53 41.91219 6.84741 35144 ft 455 kts 225°
2026-04-18 08:53 41.86558 6.78996 35152 ft 455 kts 225°
2026-04-18 08:54 41.81874 6.73295 35159 ft 455 kts 225°
2026-04-18 08:54 41.77188 6.67607 35152 ft 454 kts 225°
2026-04-18 08:55 41.72505 6.61923 35152 ft 454 kts 225°
2026-04-18 08:55 41.67819 6.56250 35149 ft 454 kts 225°
2026-04-18 08:56 41.63136 6.50574 35145 ft 454 kts 225°
2026-04-18 08:56 41.58483 6.44941 35137 ft 454 kts 225°
2026-04-18 08:57 41.51453 6.36473 35148 ft 454 kts 225°
2026-04-18 08:57 41.46764 6.30839 35150 ft 454 kts 225°
2026-04-18 08:58 41.42071 6.25215 35156 ft 453 kts 225°
2026-04-18 08:58 41.37378 6.19600 35147 ft 453 kts 225°
2026-04-18 08:59 41.32686 6.13995 35153 ft 453 kts 225°
2026-04-18 08:59 41.28784 6.09341 35151 ft 454 kts 225°
2026-04-18 09:00 41.24083 6.03752 35154 ft 453 kts 225°
2026-04-18 09:00 41.19384 5.98177 35161 ft 453 kts 225°
2026-04-18 09:01 41.14688 5.92608 35157 ft 453 kts 225°
2026-04-18 09:01 41.09986 5.87045 35158 ft 453 kts 225°
2026-04-18 09:02 41.05283 5.81485 35160 ft 453 kts 225°
2026-04-18 09:02 41.00579 5.75930 35165 ft 453 kts 225°
2026-04-18 09:03 40.95871 5.70374 34846 ft 453 kts 227°
2026-04-18 09:03 40.93775 5.67292 34604 ft 449 kts 236°
2026-04-18 09:03 40.91966 5.63949 34339 ft 448 kts 238°
2026-04-18 09:04 40.90158 5.60566 33279 ft 454 kts 238°
2026-04-18 09:04 40.88332 5.57150 32279 ft 457 kts 238°
2026-04-18 09:04 40.86489 5.53709 31222 ft 462 kts 238°
2026-04-18 09:04 40.84620 5.50228 30081 ft 467 kts 238°
2026-04-18 09:05 40.82732 5.46715 28818 ft 471 kts 237°
2026-04-18 09:05 40.80825 5.43177 27577 ft 474 kts 237°
2026-04-18 09:05 40.78910 5.39629 26530 ft 474 kts 237°
2026-04-18 09:05 40.77014 5.36121 25880 ft 465 kts 237°
2026-04-18 09:06 40.75149 5.32674 25089 ft 460 kts 237°
2026-04-18 09:06 40.73300 5.29258 24351 ft 455 kts 237°
2026-04-18 09:06 40.71475 5.25881 23593 ft 451 kts 237°
2026-04-18 09:06 40.69659 5.22527 22818 ft 446 kts 237°
2026-04-18 09:07 40.67868 5.19229 22140 ft 440 kts 236°
2026-04-18 09:07 40.66093 5.15965 21480 ft 435 kts 236°
2026-04-18 09:07 40.64340 5.12746 20841 ft 431 kts 236°
2026-04-18 09:07 40.62602 5.09553 20213 ft 427 kts 236°
2026-04-18 09:08 40.60882 5.06392 19634 ft 423 kts 237°
2026-04-18 09:08 40.59172 5.03246 19050 ft 421 kts 237°
2026-04-18 09:08 40.57477 5.00126 18513 ft 419 kts 237°
2026-04-18 09:08 40.55786 4.97015 17913 ft 416 kts 236°
2026-04-18 09:09 40.54108 4.93943 17388 ft 412 kts 236°
2026-04-18 09:09 40.52439 4.90904 16880 ft 407 kts 236°
2026-04-18 09:09 40.50790 4.87904 16365 ft 403 kts 236°
2026-04-18 09:09 40.49155 4.84925 15842 ft 400 kts 236°
2026-04-18 09:10 40.47539 4.81978 15319 ft 396 kts 236°
2026-04-18 09:10 40.45932 4.79053 14776 ft 393 kts 236°
2026-04-18 09:10 40.44337 4.76157 14241 ft 390 kts 236°
2026-04-18 09:10 40.42749 4.73271 13619 ft 389 kts 236°
2026-04-18 09:11 40.41176 4.70412 13036 ft 385 kts 236°
2026-04-18 09:11 40.39523 4.67665 12428 ft 383 kts 228°
2026-04-18 09:11 40.37552 4.65346 11822 ft 381 kts 217°
2026-04-18 09:11 40.35355 4.63422 11207 ft 378 kts 214°
2026-04-18 09:12 40.33192 4.61574 10997 ft 363 kts 214°
2026-04-18 09:12 40.31127 4.59802 10865 ft 347 kts 214°
2026-04-18 09:12 40.29172 4.58121 10753 ft 334 kts 214°
2026-04-18 09:12 40.27247 4.56465 10618 ft 321 kts 214°
2026-04-18 09:13 40.25411 4.54884 10443 ft 312 kts 214°
2026-04-18 09:13 40.23617 4.53345 10297 ft 306 kts 214°
2026-04-18 09:13 40.21829 4.51815 10228 ft 306 kts 214°
2026-04-18 09:13 40.20048 4.50291 10009 ft 307 kts 214°
2026-04-18 09:14 40.18262 4.48764 9462 ft 311 kts 214°
2026-04-18 09:14 40.16472 4.47235 9122 ft 304 kts 215°
2026-04-18 09:14 40.14720 4.45740 8749 ft 299 kts 215°
2026-04-18 09:14 40.12987 4.44259 8307 ft 296 kts 215°
2026-04-18 09:15 40.11275 4.42793 7814 ft 294 kts 216°
2026-04-18 09:15 40.09573 4.41339 7308 ft 292 kts 216°
2026-04-18 09:15 40.07877 4.39895 6806 ft 290 kts 216°
2026-04-18 09:15 40.06250 4.38377 6282 ft 284 kts 228°
2026-04-18 09:16 40.05329 4.36218 5713 ft 268 kts 263°
2026-04-18 09:16 40.05493 4.33888 5073 ft 256 kts 294°
2026-04-18 09:16 40.06255 4.31798 4357 ft 255 kts 300°
2026-04-18 09:16 40.06846 4.29641 4031 ft 249 kts 276°
2026-04-18 09:17 40.06492 4.27525 3958 ft 238 kts 243°
2026-04-18 09:17 40.05350 4.26026 3806 ft 234 kts 210°
2026-04-18 09:17 40.03799 4.25452 3560 ft 233 kts 190°
2026-04-18 09:17 40.02200 4.25140 3264 ft 232 kts 189°
2026-04-18 09:18 40.00607 4.24824 2954 ft 230 kts 189°
2026-04-18 09:18 39.99038 4.24501 2652 ft 228 kts 190°
2026-04-18 09:18 39.97485 4.24181 2355 ft 224 kts 190°
2026-04-18 09:18 39.95961 4.23866 2063 ft 219 kts 190°
2026-04-18 09:19 39.94496 4.23565 1808 ft 206 kts 191°
2026-04-18 09:19 39.93122 4.23282 1498 ft 194 kts 192°
2026-04-18 09:19 39.91834 4.23017 1247 ft 181 kts 192°
2026-04-18 09:19 39.90653 4.22774 1023 ft 163 kts 192°
2026-04-18 09:20 39.89609 4.22560 818 ft 141 kts 191°
2026-04-18 09:20 39.88679 4.22368 645 ft 131 kts 191°
2026-04-18 09:20 39.87787 4.22183 460 ft 128 kts 192°
2026-04-18 09:20 39.86908 4.21999 309 ft 127 kts 191°
2026-04-18 09:21 39.86146 4.21842 302 ft 88 kts 188°
2026-04-18 09:21 39.85771 4.21765 297 ft 30 kts 188°
2026-04-18 09:21 39.85601 4.21760 291 ft 23 kts 169°
2026-04-18 09:21 39.85463 4.21819 284 ft 18 kts 159°
2026-04-18 09:22 39.85399 4.21896 282 ft 14 kts 83°
2026-04-18 09:22 39.85473 4.21942 284 ft 12 kts
2026-04-18 09:22 39.85558 4.21958 286 ft 12 kts
2026-04-18 09:22 39.85638 4.21974 292 ft 13 kts 10°
2026-04-18 09:23 39.85741 4.21997 292 ft 17 kts
2026-04-18 09:23 39.85873 4.22023 296 ft 20 kts
2026-04-18 09:23 39.86007 4.22051 296 ft 20 kts
2026-04-18 09:23 39.86144 4.22080 295 ft 13 kts
2026-04-18 09:24 39.86189 4.22159 291 ft 15 kts 100°
2026-04-18 09:24 39.86227 4.22267 288 ft 16 kts 11°
2026-04-18 09:24 39.86338 4.22289 288 ft 16 kts
2026-04-18 09:24 39.86423 4.22308 291 ft 6 kts 12°
2026-04-18 09:25 39.86429 4.22361 287 ft 8 kts 99°
2026-04-18 09:25 39.86425 4.22389 286 ft 0 kts 99°
2026-04-18 09:25 39.86425 4.22390 286 ft 0 kts 99°